Weather History for Hyannis, MA

Change the Weather History Date:

Wednesday, April 10, 2013

  Actual Average Record
Temperature  
Mean Temperature 52 °F -  
Max Temperature 57 °F 49 °F 68 °F (1955)
Min Temperature 46 °F 35 °F 22 °F (1963)
Degree Days  
Heating Degree Days 14    
Growing Degree Days 2 (Base 50)    
Moisture  
Dew Point 45 °F    
Average Humidity 82    
Maximum Humidity 100    
Minimum Humidity 64    
Precipitation  
Precipitation 0.36 in - - ()
Sea Level Pressure  
Sea Level Pressure 29.92 in    
Wind  
Wind Speed 6 mph (ENE)    
Max Wind Speed 14 mph    
Max Gust Speed 21 mph    
Visibility 9 miles    
Events Rain    
Averages and records for this station are not official NWS values.
T = Trace of Precipitation, MM = Missing Value Source: NWS Daily Summary

Daily Weather History Graph

Daily Weather History Graph

Search for Another Location

Airport:

Trip Planner

Search our weather history database for the weather conditions in past years. The results will help you decide how hot, cold, wet, or windy it might be!

Date:

Astronomy

Apr. 10, 2013 Rise Set
Actual Time 6:08 AM EDT 7:16 PM EDT
Civil Twilight 5:40 AM EDT 7:45 PM EDT
Nautical Twilight 5:06 AM EDT 8:19 PM EDT
Astronomical Twilight 4:30 AM EDT 8:55 PM EDT
Moon 6:02 AM EDT (4/10) 7:50 PM EDT (4/10)
Length of Visible Light 14h 04m
Length of Day
13h 07m
New Moon, 0% of the Moon is Illuminated
Apr 10
New Moon
Apr 18
First Quarter
Apr 25
Full
May 2
Last Quarter
May 9
New

Hourly Weather History & Observations

Time (EDT) Temp. Windchill Dew Point Humidity Pressure Visibility Wind Dir Wind Speed Gust Speed Precip Events Conditions
12:56 AM 46.9 °F - 44.1 °F 90% 29.98 in 10.0 mi SSE 4.6 mph - N/A   Clear
1:56 AM 46.9 °F - 43.0 °F 86% 29.94 in 10.0 mi SSE 5.8 mph - N/A   Clear
2:56 AM 46.9 °F - 43.0 °F 86% 29.94 in 10.0 mi SSE 4.6 mph - N/A   Scattered Clouds
3:56 AM 48.0 °F - 43.0 °F 83% 29.95 in 10.0 mi NNE 6.9 mph - N/A   Overcast
4:56 AM 46.0 °F 44.8 °F 44.1 °F 93% 29.99 in 4.0 mi NE 3.5 mph - 0.05 in Rain Rain
5:56 AM 46.0 °F 41.9 °F 44.1 °F 93% 29.88 in 10.0 mi SE 8.1 mph - 0.08 in   Mostly Cloudy
6:56 AM 46.9 °F - 44.1 °F 90% 29.88 in 10.0 mi Variable 4.6 mph - N/A   Clear
7:56 AM 48.9 °F - 45.0 °F 86% 29.90 in 10.0 mi ENE 5.8 mph - N/A   Clear
8:56 AM 54.0 °F - 46.0 °F 75% 29.92 in 10.0 mi NE 5.8 mph - N/A   Clear
9:56 AM 55.0 °F - 46.9 °F 74% 29.92 in 10.0 mi North 5.8 mph - N/A   Scattered Clouds
10:12 AM 55.4 °F - 46.4 °F 72% 29.92 in 10.0 mi North 8.1 mph - N/A   Mostly Cloudy
10:56 AM 55.9 °F - 46.9 °F 72% 29.93 in 10.0 mi Variable 4.6 mph - N/A   Mostly Cloudy
11:10 AM 57.2 °F - 46.4 °F 67% 29.92 in 10.0 mi North 5.8 mph - N/A   Scattered Clouds
11:56 AM 54.0 °F - 45.0 °F 72% 29.94 in 10.0 mi North 11.5 mph - N/A   Partly Cloudy
12:56 PM 53.1 °F - 45.0 °F 74% 29.95 in 10.0 mi North 13.8 mph 20.7 mph N/A   Clear
1:56 PM 54.0 °F - 45.0 °F 72% 29.96 in 10.0 mi North 13.8 mph - N/A   Clear
2:56 PM 55.0 °F - 45.0 °F 69% 29.95 in 10.0 mi NNW 10.4 mph - N/A   Clear
3:56 PM 57.0 °F - 45.0 °F 64% 29.92 in 10.0 mi NNW 5.8 mph - N/A   Clear
4:56 PM 54.0 °F - 45.0 °F 72% 29.89 in 10.0 mi SSE 6.9 mph - N/A   Clear
5:56 PM 50.0 °F - 43.0 °F 77% 29.92 in 10.0 mi ESE 8.1 mph - N/A   Scattered Clouds
6:56 PM 48.9 °F - 43.0 °F 80% 29.93 in 10.0 mi ESE 5.8 mph - N/A   Overcast
7:56 PM 46.0 °F 42.5 °F 43.0 °F 89% 29.90 in 10.0 mi SSE 6.9 mph - N/A   Partly Cloudy
8:56 PM 48.0 °F - 42.1 °F 80% 29.90 in 10.0 mi SSE 5.8 mph - N/A   Scattered Clouds
9:42 PM 48.2 °F - 42.8 °F 82% 29.99 in 1.8 mi West 9.2 mph 19.6 mph 0.11 in Rain Heavy Rain
9:56 PM 46.9 °F - 45.0 °F 93% 29.92 in 3.0 mi SSE 5.8 mph - 0.18 in Rain Rain
10:56 PM 46.9 °F - 45.0 °F 93% 29.86 in 10.0 mi SE 4.6 mph - 0.04 in   Scattered Clouds
11:21 PM 46.4 °F - 44.6 °F 93% 29.86 in 10.0 mi Calm Calm - N/A   Mostly Cloudy
11:33 PM 46.4 °F - 46.4 °F 100% 29.87 in 10.0 mi Calm Calm - N/A   Overcast
11:56 PM 46.9 °F - 45.0 °F 93% 29.88 in 6.0 mi Calm Calm - 0.01 in Rain Light Rain